Powrót do katalogu

SL-8 R/B

AktywnyLEO
NORAD 14619·ROCKET BODY·🇷🇺 Russia

Wystrzelony Jan 5, 1984 z Plesetsk Cosmodrome

Loading…

Następne Przeloty (najbliższe 24 godziny)

TLE

ŚwieżeSource: Space-Track

Epoka: Sep 14, 2026, 21:14 UTC

1 14619U 84001J   26257.88486447 -.00000095  00000-0 -70167-3 0  9995
2 14619  73.9963  49.7915 0128013 289.8199 225.6945 12.24830035909016

Śledź SL-8 R/B w czasie rzeczywistym z AllMySat

Download on the App Store